Погода Грозный

Погода Грозный : погода сейчас, прогноз погоды и архив. Всё, что Вы хотите узнать о погоде Грозный!

Поиск расширенной информации на нашем сайте:

Другие новости

Новости СМИ2

Главная страница сайта

Новости сайта

02.10.2013

Напоминаем, что на нашем новом сайте вы можете получить высокодетализированные прогнозы погоды по пунктам России, СНГ и мира (включающие важные для авиации метеовеличины, такие как направление и скорость ветра, видимость, явления погоды, количество и форма облачности, нижняя и верхняя граница облачности), а также ознакомиться с разнообразными материалами по авиационной метеорологии и подборкой полезных ссылок на эту тему.

Сайт Метеоцентр.Азия посвящён разработке технологий оптимизации авиаметеорологического обслуживания, включая проектирование и перспективное создание нескольких автоматизированных авиаметеорологических систем:
- система выпуска высокодетальных прогностических карт явлений погоды для нижнего воздушного пространства по России и ближнему зарубежью;
- система верификации прогнозов TAF (выпускаемых синоптиками официальных АМСГ РФ и ближнего зарубежья) и AUTOTAF (выпускаемых сайтом Метеоцентр.Азия) - выявление ошибок, онлайн-сопоставление с фактической погодой METAR, автоматическое внесение коррективов в прогнозы при резком отклонении фактической погоды от прогноза, подсчёт оправдываемости прогнозов по элементам и в целом;
- система обработки, анализа и отображения авиаметеорологической информации для применения провайдерами метеорологической информации.


Погода Грозный - сегодня

Время (UTC), дата Ветер
(°,м/с) 
Видим.   Явления Облачность Т
(°С)
Тd
(°С)
f(%) Тe
(°С)
Pmin
(гПа)
dP
(гПа)
Po
(мм)
O2
(г/м3)
Тmin Tmax R s Состояние
почвы
18 22.05.17 тихо ()   10 км    10/10 600 м 
[Sc]
+15.2 +12.2 82 +20  1009.9  2.2  735  278           
21 22.05.17 тихо ()   10 км    4/0 средняя 
[Ac lent]
+14.1 +12.9 92 +20  1008.1  -1.8  733  278           
00 23.05.17 тихо ()   10 км    6/0 средняя 
[Ac lent]
+13.2 +12.2 94 +18  1007.8  -0.3  733  279           
03 23.05.17 260 (З) 20000 м    4/0 средняя 
[Ac lent]
+13.4 +11.5 88 +19  1009.7  1.8  734  280  +11.3        сухая 
06 23.05.17 270 (З) 20000 м    10/10 600 м 
[Sc diur, vesp]
+16.3 +11.8 75 +21  1011.4  1.8  736  278           
09 23.05.17 250 (З) 20000 м    10/10 600 м 
[Frnb]
+15.4 +12.7 84 +21  1013  1.5  737  279           
12 23.05.17 280 (З) 4000 м  слаб. ливневой дождь  10/10 300 м кучево-дожд. 
[Cb cap]
+13.6 +13.2 97 +20  1013.5  0.4  737  280           
15 23.05.17 230 (ЮЗ) 10 км  в посл. час ливневой дождь  10/10 600 м 
[Sc diur, vesp]
+13.4 +12.9 97 +21  1014.9  0.4  738  281    +16.7     
18 23.05.17 тихо ()   4000 м  дымка{ливн. осадки}  10/10 300 м 
[St]
+13 +12.6 97 +18  1015.2  1.3  739  282           
21 23.05.17 тихо ()   10 км    10/10 600 м 
[Sc]
+12.3 +11.8 97 +16  1015.3  739  282           
00 24.05.17 тихо ()   4000 м  слаб. дождь  10/10 300 м 
[Ns]
+12 +11.6 97 +16  1014.7  -0.7  738  283           
03 24.05.17 260 (З) 4000 м  слаб. дождь  10/10 300 м 
[Ns]
+11.4 +10.9 97 +16  1014.8  738  283  +11.3      влажная 
06 24.05.17 280 (З) 10 км  в посл. час дождь  10/10 600 м 
[Sc]
+12 +11.6 97 +17  1014.6  738  283           
09 24.05.17 270 (З) 4000 м  слаб. дождь  10/10 300 м 
[Ns]
+12.3 +11.8 97 +17  1012.8  0.2  737  282           
12 24.05.17 280 (З) 4000 м  ливневой дождь  10/10 300 м кучево-дожд. 
[Cb cap]
+12.5 +12.1 97 +17  1015.7  0.9  739  282           
15 24.05.17 270 (З) 10 км  в посл. час ливневой дождь  10/10 600 м 
[Sc]
+12.7 +11.3 91 +16  1017  1.2  740  283    +12.7     
18 24.05.17 270 (З) 10 км  {ливн. осадки}  9/9 600 м 
[Sc]
+11.1 +9.2 88 +11  1018.9  1.8  741  285           
21 24.05.17 280 (З) 10 км    4/0 средняя 
[Ac lent]
+10.1 +8.3 89 +10  1018.8  -0.2  741  286           
00 25.05.17 250 (З) 10 км    3/0 средняя 
[Ac lent]
+7.9 +7 94 +9  1019  -0.2  741  289           
03 25.05.17 250 (З) 20000 м    10/10 1000 м 
[Sc]
+9.5 +8.1 91 +11  1019.6  0.8  741  287  +7.8        влажная 
06 25.05.17 260 (З) 20000 м    10/10 600 м 
[Sc diur, vesp]
+11.9 +9.3 84 +12  1019.3  741  285           
09 25.05.17 260 (З) 20000 м    9/9 1000 м 
[Sc]
+15.4 +10.5 73 +18  1018.4  -0.6  741  281           
12 25.05.17 280 (З) 20000 м    10/10 600 м 
[Frnb]
+15.5 +9.8 69 +17  1018.4  0.1  741  281           
15 25.05.17 тихо ()   20000 м    10/10 1000 м 
[Sc]
+16 +10.1 68 +18  1018.4  741  280    +16.3       
18 25.05.17 090 (В) 10 км    1/0 средняя 
[Ac lent]
+11 +10 94 +13  1019.6  0.7  742  285           
Время (UTC), дата Ветер
(°,м/с) 
Видим.   Явления Облачность Т
(°С)
Тd
(°С)
f(%) Тe
(°С)
Pmin
(гПа)
dP
(гПа)
Po
(мм)
O2
(г/м3)
Тmin Tmax R s Состояние
почвы

Для получения пояснительной информации подведите курсор к названию столбца.

ПОГОДА Грозный - архив

Всё, что Вы хотите узнать о погоде Грозный - удобно и подробно!

Выберите нужную дату (начиная с 1 января 2015* года) и нажмите кнопку "Найти".
Будут отображены архивные сводки погоды по пункту Грозный, начиная с указанной даты.


Отображать данные в формате CSV (для использования в таблицах Excel)


Внимание! Наш архив погоды предназначен исключительно для личного некоммерческого использования в познавательных целях. Если Вам необходимы официальные справки о состоянии погоды (для производственных, юридических, коммерческих и т.п. целей), обращайтесь в органы Росгидромета.

*Примечание: данная дата относится к архиву по метеостанциям СССР (Россия, СНГ, Балтия).
Архив по метеостанциям Зарубежной Европы и Азии (кроме Китая) хранится 10 дней, по другим регионам земного шара (Китай, Африка, Америка, Австралия, Океания) - 1 день.

Грозный - район местоположения метеостанции


Название, широта, долгота, высота метеостанции:
Грозный 43.3°ш. 45.7°д. 163 м над ур. моря [Российская Федерация]

Дополнительная информация

В oтличие oт бoльшинства пoгoдных сайтoв мы публикуем пoдрoбную метеoинфoрмацию в детальнoм прoфессиoнальнoм фoрмате.

Характеристики температуры и влажнoсти вoздуха измеряются на высoте 2 м в тени вдали oт зданий и деревьев.
Скoрoсть ветра измеряется на высoте 10 м (на урoвне рoста челoвека скoрoсть ветра ниже в 1.5-2 раза). Если метеoстанция нахoдится в гoрoде или в лесу, тo скoрoсть ветра занижена на 2-4 м/с пo сравнению с oткрытым местoм. Скoрoсть ветра над акватoриями крупных рек и oзёр, а также на вершинах хoлмoв на 2-5 м/с выше, чем в oбычных услoвиях.
Атмoсфернoе давление в разных тoчках местнoсти мoжет значительнo oтличаться oт давления на метеoстанции, в зависимoсти oт услoвий рельефа (при пoдъёме на 10 м давление пoнижается примернo на 1 мм рт.ст.).